STARLINK-11189, 60188

Orbit data source: Space-Track

STARLINK-11189, 60188 is a payload satellite owned by SpaceX/Seattle (US) in LEO that was launched on Wed, 03 Jul 2024 UTC via an FALCON 9 launch vehicle from the Air Force Eastern Test Range (AFETR). Payload-class satellites include a variety of spacecraft equipped with specific instruments for various scientific and technological missions. These include communications satellites like Starlink; space stations such as the ISS; scientific satellites like the Hubble; Earth observation satellites from companies like Planet Labs, Umbra, and HawkEye 360; GPS; miniature CubeSats for education and research; and military/defense satellites.

Loading next visibility...
Identifier
60188, 2024-124F
Orbit
LEO
Last TLE update
10 hours ago
Origin
Manufacturer
SpaceX/Seattle
Mission
Operational Commercial Communications
Bus & Motor
STARLINK V2M, Unknown motor
Mass
730 kg wet, ~700 kg dry
Launch date (UTC)
2024-07-03 (10 months ago)
Launch vehicle
FALCON 9
Launch site
Air Force Eastern Test Range (AFETR)
Object type
Payload
Rocket body
Debris
Shape & HBR
Box + 2 Pan, 29 m
Radar Cross Section
36.964 m², Large (>1 m²)

Expand to show TLE details & history

TLE from 10 hours ago
0 STARLINK-11189
1 60188U 24124F   25109.57849946  .00002411  00000-0  24769-4 0  9995
2 60188  53.1589 319.3806 0001259 134.9967 225.1153 15.69696897 46805
Epoch: 2025-04-19T13:53Z
Definitive object data (Epoch: 2025-04-19T13:53:02.353Z)
Latitude
-0.00002°
Longitude
-96.7989°
Altitude
361.278 km
Speed
7.693 km/s
True Right ascension
21h 17m 31s
True Declination
0° 00' 00"
Sunlit
Object was in daylight at TLE epoch
Visualization TLE readout
Latitude
-50.09238°
Longitude
-161.90615°
Altitude
377.766 km
Speed
7.682 km/s
Apparent Right ascension
18h 07m 12s
Apparent Declination
-46° 09' 59"
Sunlit
Object is in full shadow
Visualization observer readout
Local Sidereal Time
07:09:07
Azimuth
124.063° SE
Elevation
-77.105°
Doppler factor
1
Orbital elements
Apogee altitude
360.873 km
Perigee altitude
359.177 km
Semi-major axis
6,738.162 km
Eccentricity
0.0001259
Inclination
53.1589°
RAAN
319.3806°
Arg. of periapsis
134.9967°
True anomaly
225.10508°
Mean anomaly
225.1153°
Eccentric anomaly
225.11019°
Mean motion
3.92402 °/min
BSTAR
0.000024769
Orbital period
91.74 mins
Loading maneuver chart data...
Loading SW <> Apogee altitude chart data...
Loading historical data...
Loading historical data...
Loading historical data...
Loading historical data...
Loading historical data...
Loading historical data...
Loading historical data...

STARLINK-11189 Visibility forecast

Observer location: undefined°, undefined°

Span
Click to sort rows by Start time (UTC) header in descending order
Start Az.
Max El. time (UTC)
Max El. Az.
Max El.
End time (UTC)
End Az.
4 mins2025-04-20 16:02:13.165Z195.288° SSW2025-04-20 16:04:13.165Z127.356° SE30.638°2025-04-20 16:06:13.165Z70.649° E
4 mins2025-04-20 22:27:13.165Z346.705° N2025-04-20 22:28:13.165Z14.847° NNE23.459°2025-04-20 22:31:13.165Z92.627° ESE
|